Weather History for Meriden, CT

Change the Weather History Date:

Monday, July 22, 2013

  Actual Average (KHVN) Record (KHVN)
Temperature  
Mean Temperature 74 °F -  
Max Temperature 82 °F 78 °F 101 °F (1991)
Min Temperature 66 °F 63 °F 55 °F (1974)
Cooling Degree Days 9    
Growing Degree Days 24 (Base 50)    
Moisture  
Dew Point 69 °F    
Average Humidity 82    
Maximum Humidity 93    
Minimum Humidity 70    
Precipitation  
Precipitation 0.01 in - - ()
Sea Level Pressure  
Sea Level Pressure 29.92 in    
Wind  
Wind Speed 2 mph (SE)    
Max Wind Speed 9 mph    
Max Gust Speed -    
Visibility 10 miles    
Events Rain    
Averages and records for this station are not official NWS values.
T = Trace of Precipitation, MM = Missing Value Source: NWS Daily Summary

Daily Weather History Graph

Daily Weather History Graph

Search for Another Location

Airport:

Trip Planner

Search our weather history database for the weather conditions in past years. The results will help you decide how hot, cold, wet, or windy it might be!

Date:

Astronomy

Jul. 22, 2013 Rise Set
Actual Time 5:36 AM EDT 8:18 PM EDT
Civil Twilight 5:04 AM EDT 8:50 PM EDT
Nautical Twilight 4:24 AM EDT 9:30 PM EDT
Astronomical Twilight 3:37 AM EDT 10:16 PM EDT
Moon 8:01 PM EDT (7/22) 5:30 AM EDT (7/22)
Length of Visible Light 15h 45m
Length of Day
14h 41m
Full, 100% of the Moon is Illuminated
Jul 22
Full
Jul 22
Full
Jul 29
Last Quarter
Aug 6
New
Aug 14
First Quarter

Hourly Weather History & Observations

Time (EDT) Temp. Heat Index Dew Point Humidity Pressure Visibility Wind Dir Wind Speed Gust Speed Precip Events Conditions
12:53 AM 69.1 °F - 66.0 °F 90% 29.97 in 10.0 mi Calm Calm - N/A   Clear
1:53 AM 68.0 °F - 64.9 °F 90% 29.98 in 10.0 mi Calm Calm - N/A   Clear
2:53 AM 66.9 °F - 64.9 °F 93% 29.97 in 10.0 mi Calm Calm - N/A   Clear
3:53 AM 66.9 °F - 64.9 °F 93% 29.96 in 10.0 mi Calm Calm - N/A   Clear
4:53 AM 68.0 °F - 66.0 °F 93% 29.96 in 10.0 mi Calm Calm - N/A   Clear
5:53 AM 66.9 °F - 64.9 °F 93% 29.97 in 8.0 mi Calm Calm - N/A   Clear
6:53 AM 71.1 °F - 66.9 °F 87% 29.98 in 10.0 mi Calm Calm - N/A   Mostly Cloudy
7:50 AM 71.6 °F - 66.2 °F 83% 29.98 in 10.0 mi North 3.5 mph - N/A   Mostly Cloudy
7:53 AM 72.0 °F - 66.9 °F 84% 29.98 in 10.0 mi Calm Calm - N/A   Mostly Cloudy
8:53 AM 75.0 °F - 68.0 °F 79% 29.98 in 10.0 mi Calm Calm - N/A   Overcast
9:53 AM 75.9 °F - 69.1 °F 79% 29.98 in 10.0 mi NE 4.6 mph - N/A   Overcast
10:41 AM 77.0 °F - 69.8 °F 78% 29.98 in 10.0 mi Variable 3.5 mph - N/A   Overcast
10:53 AM 78.1 °F - 70.0 °F 76% 29.97 in 10.0 mi ESE 4.6 mph - N/A   Mostly Cloudy
11:53 AM 79.0 °F - 70.0 °F 74% 29.97 in 10.0 mi Calm Calm - N/A   Overcast
12:53 PM 80.1 °F 83.2 °F 70.0 °F 71% 29.95 in 10.0 mi Calm Calm - N/A   Mostly Cloudy
1:53 PM 81.0 °F 84.9 °F 71.1 °F 72% 29.94 in 10.0 mi Variable 4.6 mph - N/A   Overcast
2:18 PM 80.6 °F 84.6 °F 71.6 °F 74% 29.93 in 10.0 mi SE 9.2 mph - N/A   Mostly Cloudy
2:53 PM 81.0 °F 84.9 °F 71.1 °F 72% 29.92 in 10.0 mi SSE 4.6 mph - N/A   Partly Cloudy
3:08 PM 82.4 °F 87.2 °F 71.6 °F 70% 29.92 in 10.0 mi Variable 4.6 mph - N/A   Mostly Cloudy
3:53 PM 80.1 °F 83.6 °F 71.1 °F 74% 29.91 in 10.0 mi SE 5.8 mph - N/A   Overcast
4:25 PM 78.8 °F - 69.8 °F 74% 29.89 in 10.0 mi SE 4.6 mph - N/A   Scattered Clouds
4:53 PM 80.1 °F 83.2 °F 70.0 °F 71% 29.89 in 10.0 mi SE 8.1 mph - N/A   Partly Cloudy
5:18 PM 80.6 °F 84.6 °F 71.6 °F 74% 29.89 in 10.0 mi SE 4.6 mph - N/A   Mostly Cloudy
5:53 PM 79.0 °F - 71.1 °F 77% 29.88 in 10.0 mi SSE 6.9 mph - N/A   Mostly Cloudy
6:10 PM 78.8 °F - 71.6 °F 78% 29.88 in 10.0 mi SSE 6.9 mph - N/A   Mostly Cloudy
6:18 PM 78.8 °F - 71.6 °F 78% 29.88 in 10.0 mi ESE 8.1 mph - N/A   Mostly Cloudy
6:53 PM 77.0 °F - 71.1 °F 82% 29.88 in 10.0 mi SSE 5.8 mph - N/A   Mostly Cloudy
7:49 PM 75.2 °F - 71.6 °F 89% 29.88 in 9.0 mi ESE 6.9 mph - 0.00 in Rain Light Rain
7:53 PM 75.9 °F - 71.1 °F 85% 29.88 in 10.0 mi ESE 5.8 mph - 0.00 in Rain Light Rain
8:49 PM 75.2 °F - 71.6 °F 89% 29.87 in 10.0 mi SE 4.6 mph - 0.00 in Rain Light Rain
8:53 PM 75.0 °F - 72.0 °F 90% 29.87 in 10.0 mi SE 5.8 mph - 0.00 in Rain Light Rain
9:53 PM 73.9 °F - 71.1 °F 91% 29.86 in 10.0 mi ESE 4.6 mph - 0.00 in   Overcast
10:53 PM 73.9 °F - 72.0 °F 93% 29.86 in 8.0 mi Variable 3.5 mph - 0.01 in Rain Light Rain
11:53 PM 73.0 °F - 71.1 °F 93% 29.84 in 10.0 mi Variable 4.6 mph - 0.00 in   Overcast